EW2237 Weather Reports


time (UTC)temp
C
wind
direction
speed
KPH
gust
KPH
rain 1hr
cm
rain 24hr
cm
rain mn
cm
humidity
%
barometer
mb
20260504150822 19 313 1.6 8.0 0.00 0.00 0.00 46 1013.5
20260504150326 19 303 1.6 8.0 0.00 0.00 0.00 47 1013.6
20260504141323 17 5 1.6 8.0 0.00 0.00 0.00 54 1013.7
20260504140829 17 148 1.6 9.7 0.00 0.00 0.00 55 1013.7
20260504140352 17 8 3.2 9.7 0.00 0.00 0.00 54 1013.8
20260504130353 15 156 1.6 12.9 0.00 0.00 0.00 64 1014.2
20260504120314 11 216 0.0 6.4 0.00 0.00 0.00 82 1014.5
20260504110316 10 174 0.0 0.0 0.00 0.00 0.00 82 1014.8
20260504100320 9 183 1.6 4.8 0.00 0.00 0.00 81 1014.9
20260504081824 8 149 0.0 1.6 0.00 0.00 0.00 77 1014.9
20260504081328 8 155 0.0 3.2 0.00 0.00 0.00 76 1014.9
20260504080812 8 170 0.0 3.2 0.00 0.00 0.00 76 1014.9
20260504080337 8 159 0.0 3.2 0.00 0.00 0.00 76 1014.8
20260504070352 7 134 0.0 3.2 0.00 0.00 0.00 73 1014.6
20260504050317 8 146 0.0 1.6 0.00 0.00 0.00 72 1014.6
20260504045821 7 149 0.0 3.2 0.00 0.00 0.00 72 1014.6
20260504045325 7 160 0.0 3.2 0.00 0.00 0.00 73 1014.7
20260504044828 7 160 0.0 1.6 0.00 0.00 0.00 73 1014.6
20260504044333 7 140 0.0 1.6 0.00 0.00 0.00 73 1014.6
20260504043816 7 140 0.0 1.6 0.00 0.00 0.00 72 1014.5
20260504043318 7 140 0.0 1.6 0.00 0.00 0.00 72 1014.5
20260504042823 7 139 0.0 1.6 0.00 0.00 0.00 73 1014.4
20260504042327 7 139 0.0 3.2 0.00 0.00 0.00 73 1014.4
20260504041811 7 156 0.0 3.2 0.00 0.00 0.00 74 1014.4
20260504041316 7 159 0.0 1.6 0.00 0.00 0.00 74 1014.3
20260504040841 7 151 0.0 1.6 0.00 0.00 0.00 75 1014.3
20260504040325 6 141 0.0 0.0 0.00 0.00 0.00 75 1014.2
20260504035829 6 141 0.0 0.0 0.00 0.00 0.00 75 1014.2
20260504035312 6 141 0.0 0.0 0.00 0.00 0.00 74 1014.1
20260504034817 6 141 0.0 0.0 0.00 0.00 0.00 74 1014.1
20260504034320 6 141 0.0 0.0 0.00 0.00 0.00 75 1014.1
20260504033825 6 140 0.0 0.0 0.00 0.00 0.00 74 1014.1
20260504033348 6 141 0.0 0.0 0.00 0.00 0.00 73 1014.0
20260504032830 6 141 0.0 0.0 0.00 0.00 0.00 71 1014.0
20260504032334 6 141 0.0 0.0 0.00 0.00 0.00 71 1014.0
20260504031816 6 140 0.0 0.0 0.00 0.00 0.00 71 1014.0
20260504031335 6 141 0.0 0.0 0.00 0.00 0.00 70 1013.9
20260504030818 6 140 0.0 0.0 0.00 0.00 0.00 69 1013.9
20260504030323 7 141 0.0 0.0 0.00 0.00 0.00 68 1013.9
20260504025847 7 141 0.0 0.0 0.00 0.00 0.00 67 1013.9
20260504025324 7 141 0.0 0.0 0.00 0.00 0.00 66 1013.9
20260504024826 7 141 0.0 0.0 0.00 0.00 0.00 66 1014.0
20260504024331 7 141 0.0 0.0 0.00 0.00 0.00 65 1014.0
20260504023835 7 141 0.0 0.0 0.00 0.00 0.00 65 1013.9
20260504023339 8 141 0.0 0.0 0.00 0.00 0.00 64 1013.9
20260504022820 8 141 0.0 0.0 0.00 0.00 0.00 64 1013.9
20260504022325 8 141 0.0 0.0 0.00 0.00 0.00 64 1014.0
20260504021849 8 140 0.0 0.0 0.00 0.00 0.00 65 1014.0
20260504021331 8 141 0.0 0.0 0.00 0.00 0.00 64 1013.9
20260504020814 8 140 0.0 0.0 0.00 0.00 0.00 63 1014.0
20260504020318 8 141 0.0 0.0 0.00 0.00 0.00 62 1014.0
20260504015822 8 141 0.0 0.0 0.00 0.00 0.00 62 1013.9
20260504015327 8 140 0.0 1.6 0.00 0.00 0.00 61 1013.8
20260504014831 8 141 0.0 1.6 0.00 0.00 0.00 61 1013.8
20260504014334 8 141 0.0 1.6 0.00 0.00 0.00 61 1013.8
20260504013815 8 141 0.0 0.0 0.00 0.00 0.00 60 1013.8
20260504013335 8 141 0.0 0.0 0.00 0.00 0.00 59 1013.8
20260504012817 8 141 0.0 0.0 0.00 0.00 0.00 58 1013.7
20260504012322 9 141 0.0 0.0 0.00 0.00 0.00 57 1013.7
20260504011825 9 141 0.0 0.0 0.00 0.00 0.00 56 1013.7
20260504011312 9 141 0.0 0.0 0.00 0.00 0.00 55 1013.5
20260504010837 10 141 0.0 0.0 0.00 0.00 0.00 54 1013.5
20260504010329 10 141 0.0 0.0 0.00 0.00 0.00 53 1013.4
20260504005840 10 141 0.0 0.0 0.00 0.00 0.00 52 1013.3
20260504005326 10 141 0.0 0.0 0.00 0.00 0.00 50 1013.3
20260504004830 11 141 0.0 0.0 0.00 0.00 0.00 49 1013.2
20260504004314 11 140 0.0 1.6 0.00 0.00 0.00 48 1013.2
20260504003816 11 141 0.0 1.6 0.00 0.00 0.00 46 1013.2
20260504003321 12 157 0.0 1.6 0.00 0.00 0.00 45 1013.1
20260504002825 12 50 0.0 0.0 0.00 0.00 0.00 45 1012.9
20260504002313 12 50 0.0 0.0 0.00 0.00 0.00 43 1012.8
20260504001817 12 50 0.0 1.6 0.00 0.00 0.00 42 1012.8
20260504001321 13 49 0.0 1.6 0.00 0.00 0.00 42 1012.7
20260504000825 13 27 0.0 0.0 0.00 0.00 0.00 40 1012.7
20260504000330 13 27 0.0 1.6 0.00 0.00 0.00 40 1012.7
20260503235813 13 27 0.0 3.2 0.00 0.00 0.00 39 1012.7
20260503235318 14 25 0.0 3.2 0.00 0.00 0.00 38 1012.7
20260503234822 14 33 0.0 4.8 0.00 0.00 0.00 38 1012.6
20260503234327 14 15 0.0 4.8 0.00 0.00 0.00 38 1012.7
20260503233811 15 49 1.6 8.0 0.00 0.00 0.00 37 1012.7
20260503233315 15 161 1.6 8.0 0.00 0.00 0.00 36 1012.5
20260503232818 15 286 1.6 11.3 0.00 0.00 0.00 35 1012.5
20260503232317 15 82 3.2 12.9 0.00 0.00 0.00 34 1012.4
20260503231821 15 64 3.2 12.9 0.00 0.00 0.00 34 1012.4
20260503231325 15 226 3.2 11.3 0.00 0.00 0.00 34 1012.4
20260503230827 15 354 3.2 11.3 0.00 0.00 0.00 34 1012.4
20260503230311 15 6 3.2 12.9 0.00 0.00 0.00 34 1012.4
20260503225816 15 1 4.8 12.9 0.00 0.00 0.00 34 1012.4
20260503225319 15 233 3.2 14.5 0.00 0.00 0.00 33 1012.4
20260503224821 15 15 4.8 14.5 0.00 0.00 0.00 34 1012.4
20260503224314 15 18 6.4 14.5 0.00 0.00 0.00 33 1012.4
20260503223818 15 8 6.4 16.1 0.00 0.00 0.00 33 1012.4
20260503223322 15 8 6.4 16.1 0.00 0.00 0.00 33 1012.4
20260503222845 15 341 4.8 14.5 0.00 0.00 0.00 33 1012.4
20260503222328 15 319 6.4 20.9 0.00 0.00 0.00 33 1012.5
20260503221832 15 13 6.4 20.9 0.00 0.00 0.00 33 1012.5
20260503221315 16 317 8.0 17.7 0.00 0.00 0.00 32 1012.4
20260503220819 16 325 8.0 17.7 0.00 0.00 0.00 32 1012.4
20260503220343 16 298 4.8 12.9 0.00 0.00 0.00 33 1012.3
20260503215826 16 352 4.8 16.1 0.00 0.00 0.00 33 1012.4
20260503215330 16 323 4.8 20.9 0.00 0.00 0.00 32 1012.4
20260503214813 16 351 4.8 20.9 0.00 0.00 0.00 31 1012.4
20260503214318 16 349 4.8 16.1 0.00 0.00 0.00 31 1012.4
20260503213821 16 302 4.8 19.3 0.00 0.00 0.00 31 1012.4
20260503213326 16 336 6.4 19.3 0.00 0.00 0.00 31 1012.5
20260503212851 16 2 9.7 22.5 0.00 0.00 0.00 31 1012.4
20260503212314 16 342 8.0 22.5 0.00 0.00 0.00 31 1012.3
20260503211818 16 313 9.7 20.9 0.00 0.00 0.00 32 1012.4
20260503211322 16 4 6.4 22.5 0.00 0.00 0.00 33 1012.3
20260503210827 16 348 8.0 24.1 0.00 0.00 0.00 32 1012.4
20260503210332 16 332 8.0 24.1 0.00 0.00 0.00 32 1012.4
20260503205814 16 5 3.2 17.7 0.00 0.00 0.00 34 1012.4
20260503205317 16 16 8.0 22.5 0.00 0.00 0.00 33 1012.5
20260503204821 16 44 8.0 22.5 0.00 0.00 0.00 33 1012.5
20260503204324 16 39 8.0 24.1 0.00 0.00 0.00 34 1012.6
20260503203825 15 308 8.0 24.1 0.00 0.00 0.00 33 1012.5
20260503203347 15 22 4.8 25.7 0.00 0.00 0.00 34 1012.6
20260503202829 15 9 11.3 25.7 0.00 0.00 0.00 33 1012.5
20260503202332 15 350 6.4 17.7 0.00 0.00 0.00 34 1012.6
20260503201813 16 76 8.0 17.7 0.00 0.00 0.00 34 1012.6
20260503201331 16 342 6.4 17.7 0.00 0.00 0.00 36 1012.7
20260503200814 15 15 8.0 30.6 0.00 0.00 0.00 33 1012.7
20260503200340 15 354 11.3 30.6 0.00 0.00 0.00 34 1012.8
20260503195822 15 352 6.4 22.5 0.00 0.00 0.00 36 1012.8
20260503195346 15 306 6.4 22.5 0.00 0.00 0.00 35 1012.8
20260503194830 15 359 8.0 19.3 0.00 0.00 0.00 35 1012.7
20260503194315 15 338 8.0 22.5 0.00 0.00 0.00 34 1012.9
20260503193818 15 6 9.7 22.5 0.00 0.00 0.00 33 1012.9
20260503193324 15 8 4.8 22.5 0.00 0.00 0.00 35 1012.9
20260503192849 15 217 4.8 17.7 0.00 0.00 0.00 35 1012.9
20260503192312 15 339 6.4 17.7 0.00 0.00 0.00 35 1012.9
20260503191816 16 18 3.2 11.3 0.00 0.00 0.00 34 1012.9
20260503191319 16 44 4.8 11.3 0.00 0.00 0.00 36 1013.1
20260503190823 15 357 3.2 11.3 0.00 0.00 0.00 35 1013.0
20260503190328 15 27 4.8 16.1 0.00 0.00 0.00 34 1013.1
20260503185813 15 357 6.4 16.1 0.00 0.00 0.00 35 1013.1
20260503185338 15 333 8.0 17.7 0.00 0.00 0.00 33 1013.1
20260503184821 15 8 6.4 20.9 0.00 0.00 0.00 35 1013.2
20260503184325 15 24 8.0 20.9 0.00 0.00 0.00 34 1013.2
20260503183828 15 351 9.7 16.1 0.00 0.00 0.00 34 1013.3
20260503183313 15 341 6.4 17.7 0.00 0.00 0.00 35 1013.3
20260503182818 14 342 6.4 19.3 0.00 0.00 0.00 33 1013.3
20260503182321 15 24 8.0 19.3 0.00 0.00 0.00 34 1013.4
20260503181825 14 356 4.8 19.3 0.00 0.00 0.00 38 1013.4
20260503181312 14 353 8.0 19.3 0.00 0.00 0.00 34 1013.4
20260503180816 14 18 4.8 14.5 0.00 0.00 0.00 37 1013.4
20260503180321 14 255 6.4 19.3 0.00 0.00 0.00 35 1013.5
20260503175825 14 23 6.4 19.3 0.00 0.00 0.00 35 1013.6
20260503175329 14 23 8.0 16.1 0.00 0.00 0.00 37 1013.5
20260503174814 13 330 3.2 19.3 0.00 0.00 0.00 41 1013.5
20260503174316 13 331 8.0 22.5 0.00 0.00 0.00 36 1013.7
20260503173841 13 331 12.9 29.0 0.00 0.00 0.00 38 1013.7
20260503173324 13 343 14.5 29.0 0.00 0.00 0.00 35 1013.8
20260503172826 13 350 9.7 27.4 0.00 0.00 0.00 36 1013.7
20260503172329 13 15 4.8 16.1 0.00 0.00 0.00 39 1013.8
20260503171817 13 139 3.2 19.3 0.00 0.00 0.00 39 1013.8
20260503171321 13 303 9.7 19.3 0.00 0.00 0.00 38 1013.9
20260503170824 13 31 8.0 16.1 0.00 0.00 0.00 38 1013.9
20260503170328 13 23 4.8 16.1 0.00 0.00 0.00 41 1013.8